weather.gov     
National Weather Service

Regional Weather Roundup
NWS Homepage
This page is being discontinued on March 12, 2014.
The same data is available at this site. Please update your bookmarks.
Thank you, and we apologize for the inconvenience.
Please send an email to SR-SRH.Webmaster@noaa.gov with any concerns.


Current Version
Previous Version:    01  02  03  04  05  06  07  08  09  10  11  12  13  14  15  16  17  18  19  20  21  22  23  24  25  26  
[Printable]
270
ASPQ40 PGUM 180012
RWRPQ
WEATHER ROUNDUP FOR THE MARIANAS AND MICRONESIA
NATIONAL WEATHER SERVICE TIYAN GU
1000 AM GSST FRI APR 18 2014

GUZ001>004-180100-
MARIANA ISLANDS-

CITY           SKY/WX    TMP DP  RH WIND       PRES   REMARKS
GUAM AIRPORT   PTSUNNY   84  75  74 E14       29.84S HX  92
ANDERSEN AFB   PTSUNNY   84  77  79 E15       29.84F HX  94
ROTA AIRPORT   PTSUNNY   81  77  89 E13       29.84S
TINIAN AP      MOSUNNY   82  75  78 E13       29.83F
SAIPAN AP      MOSUNNY   84  77  79 E12       29.85S HX  94

$$

PMZ161-180100-
REPUBLIC OF PALAU-

CITY           SKY/WX    TMP DP  RH WIND       PRES   REMARKS
KOROR AP       PTSUNNY   84  77  79 W8        29.82R HX  94
KOROR WSO      CLOUDY    88  77  70 N7        29.82S HX 100

$$

PMZ171>174-180100-
FEDERATED STATES OF MICRONESIA-

CITY           SKY/WX    TMP DP  RH WIND       PRES   REMARKS
YAP AIRPORT    MOSUNNY   93  79  62 VRB3      29.83S HX 110
CHUUK AP       CLOUDY    84  79  84 S8        29.82S HX  96
POHNPEI AP     CLOUDY    82  75  78 E6        29.81F
POHNPEI WSO    NOT AVBL
KOSRAE AP      CLOUDY    86  75  70 NE12      29.83S HX  95

$$

PMZ181-180100-
REPUBLIC OF THE MARSHALL ISLANDS-

CITY           SKY/WX    TMP DP  RH WIND       PRES   REMARKS
KWAJALEIN AP   MOSUNNY   86  75  70 E21       29.86S HX  95
MAJURO AP      NOT AVBL
MAJURO WSO     CLOUDY    86  77  74 NE12      29.83F HX  97

$$





U.S. Dept. of Commerce
NOAA National Weather Service
1325 East West Highway
Silver Spring, MD 20910
E-mail: w-nws.webmaster@noaa.gov
Page last modified: May 16, 2007
NATIONAL WEATHER SERVICE: for Safety, for Work, for Fun - FOR LIFE